| time (UTC) | temp F | wind direction | speed knots | gust knots | rain 1hr in | rain 24hr in | rain mn in | humidity % | barometer mb |
| 20260504050623 | 37 | 252 | 0.0 | 0.0 | 0.00 | 0.00 | 0.00 | 91 | 1013.5 |
| 20260504050120 | 37 | 252 | 0.0 | 0.0 | 0.00 | 0.00 | 0.00 | 90 | 1013.4 |
| 20260504045617 | 38 | 252 | 0.0 | 0.0 | 0.00 | 0.00 | 0.00 | 89 | 1013.3 |
| 20260504045112 | 38 | 251 | 0.0 | 0.0 | 0.00 | 0.00 | 0.00 | 87 | 1013.7 |
| 20260504044610 | 38 | 251 | 0.0 | 0.0 | 0.00 | 0.00 | 0.00 | 87 | 1013.5 |
| 20260504044106 | 38 | 251 | 0.0 | 0.0 | 0.00 | 0.00 | 0.00 | 88 | 1013.4 |
| 20260504043604 | 38 | 252 | 0.0 | 0.0 | 0.00 | 0.00 | 0.00 | 87 | 1013.4 |
| 20260504043100 | 38 | 251 | 0.0 | 0.0 | 0.00 | 0.00 | 0.00 | 87 | 1013.4 |
| 20260504042558 | 39 | 251 | 0.0 | 0.0 | 0.00 | 0.00 | 0.00 | 86 | 1013.4 |
| 20260504042055 | 40 | 250 | 0.0 | 0.0 | 0.00 | 0.00 | 0.00 | 84 | 1013.4 |
| 20260504041550 | 40 | 250 | 0.0 | 0.0 | 0.00 | 0.00 | 0.00 | 83 | 1013.4 |
| 20260504041047 | 40 | 250 | 0.0 | 0.0 | 0.00 | 0.00 | 0.00 | 82 | 1013.5 |
| 20260504040544 | 40 | 250 | 0.0 | 0.0 | 0.00 | 0.00 | 0.00 | 84 | 1013.4 |
| 20260504040041 | 39 | 250 | 0.0 | 0.0 | 0.00 | 0.00 | 0.00 | 86 | 1013.2 |
| 20260504035538 | 39 | 250 | 0.0 | 0.0 | 0.00 | 0.00 | 0.00 | 85 | 1013.2 |
| 20260504035034 | 39 | 250 | 0.0 | 0.0 | 0.00 | 0.00 | 0.00 | 85 | 1013.3 |
| 20260504034532 | 38 | 250 | 0.0 | 0.0 | 0.00 | 0.00 | 0.00 | 87 | 1013.1 |
| 20260504034028 | 38 | 250 | 0.0 | 0.0 | 0.00 | 0.00 | 0.00 | 88 | 1013.2 |
| 20260504033527 | 38 | 251 | 0.0 | 0.0 | 0.00 | 0.00 | 0.00 | 89 | 1013.2 |
| 20260504033024 | 38 | 250 | 0.0 | 0.0 | 0.00 | 0.00 | 0.00 | 89 | 1013.3 |
| 20260504032520 | 38 | 251 | 0.0 | 0.0 | 0.00 | 0.00 | 0.00 | 89 | 1013.2 |
| 20260504032018 | 38 | 250 | 0.0 | 0.0 | 0.00 | 0.00 | 0.00 | 88 | 1013.3 |
| 20260504031515 | 39 | 250 | 0.0 | 0.0 | 0.00 | 0.00 | 0.00 | 88 | 1013.2 |
| 20260504031011 | 39 | 250 | 0.0 | 0.0 | 0.00 | 0.00 | 0.00 | 88 | 1013.4 |
| 20260504030509 | 39 | 250 | 0.0 | 0.0 | 0.00 | 0.00 | 0.00 | 88 | 1013.1 |
| 20260504030005 | 39 | 250 | 0.0 | 0.0 | 0.00 | 0.00 | 0.00 | 87 | 1013.2 |
| 20260504025502 | 39 | 250 | 0.0 | 0.0 | 0.00 | 0.00 | 0.00 | 86 | 1013.1 |
| 20260504024958 | 39 | 250 | 0.0 | 0.0 | 0.00 | 0.00 | 0.00 | 87 | 1013.3 |
| 20260504024454 | 38 | 250 | 0.0 | 0.0 | 0.00 | 0.00 | 0.00 | 89 | 1013.3 |
| 20260504023952 | 38 | 250 | 0.0 | 0.0 | 0.00 | 0.00 | 0.00 | 90 | 1013.3 |
| 20260504023449 | 39 | 250 | 0.0 | 0.0 | 0.00 | 0.00 | 0.00 | 90 | 1013.3 |
| 20260504022944 | 38 | 249 | 0.0 | 0.0 | 0.00 | 0.00 | 0.00 | 88 | 1013.3 |
| 20260504022440 | 39 | 249 | 0.0 | 0.0 | 0.00 | 0.00 | 0.00 | 90 | 1013.2 |
| 20260504021937 | 39 | 249 | 0.0 | 0.0 | 0.00 | 0.00 | 0.00 | 89 | 1013.3 |
| 20260504021434 | 39 | 249 | 0.0 | 0.0 | 0.00 | 0.00 | 0.00 | 89 | 1013.4 |
| 20260504020931 | 39 | 249 | 0.0 | 0.0 | 0.00 | 0.00 | 0.00 | 88 | 1013.3 |
| 20260504020428 | 39 | 249 | 0.0 | 0.0 | 0.00 | 0.00 | 0.00 | 87 | 1013.1 |
| 20260504015925 | 40 | 249 | 0.0 | 0.0 | 0.00 | 0.00 | 0.00 | 87 | 1013.3 |
| 20260504015420 | 40 | 249 | 0.0 | 0.0 | 0.00 | 0.00 | 0.00 | 87 | 1013.1 |
| 20260504014917 | 40 | 249 | 0.0 | 0.0 | 0.00 | 0.00 | 0.00 | 87 | 1013.4 |
| 20260504014413 | 40 | 249 | 0.0 | 0.0 | 0.00 | 0.00 | 0.00 | 86 | 1013.1 |
| 20260504013910 | 41 | 249 | 0.0 | 0.0 | 0.00 | 0.00 | 0.00 | 85 | 1013.0 |
| 20260504013408 | 41 | 249 | 0.0 | 0.0 | 0.00 | 0.00 | 0.00 | 84 | 1013.3 |
| 20260504012904 | 41 | 249 | 0.0 | 0.0 | 0.00 | 0.00 | 0.00 | 82 | 1013.3 |
| 20260504012403 | 42 | 249 | 0.0 | 0.0 | 0.00 | 0.00 | 0.00 | 82 | 1013.2 |
| 20260504011900 | 42 | 248 | 0.0 | 0.0 | 0.00 | 0.00 | 0.00 | 80 | 1013.1 |
| 20260504011357 | 43 | 248 | 0.0 | 0.0 | 0.00 | 0.00 | 0.00 | 77 | 1013.0 |
| 20260504010852 | 44 | 248 | 0.0 | 0.0 | 0.00 | 0.00 | 0.00 | 77 | 1013.0 |
| 20260504010348 | 44 | 248 | 0.0 | 0.0 | 0.00 | 0.00 | 0.00 | 74 | 1013.0 |
| 20260504005844 | 45 | 248 | 0.0 | 0.0 | 0.00 | 0.00 | 0.00 | 73 | 1013.0 |
| 20260504005341 | 46 | 246 | 0.0 | 0.0 | 0.00 | 0.00 | 0.00 | 69 | 1012.9 |
| 20260504004839 | 46 | 245 | 0.0 | 0.0 | 0.00 | 0.00 | 0.00 | 65 | 1012.9 |
| 20260504004336 | 47 | 245 | 0.0 | 0.0 | 0.00 | 0.00 | 0.00 | 65 | 1013.0 |
| 20260504003832 | 47 | 245 | 0.0 | 0.0 | 0.00 | 0.00 | 0.00 | 65 | 1012.9 |
| 20260504003330 | 48 | 244 | 0.0 | 0.0 | 0.00 | 0.00 | 0.00 | 64 | 1012.8 |
| 20260504002826 | 50 | 243 | 0.0 | 0.0 | 0.00 | 0.00 | 0.00 | 60 | 1012.6 |
| 20260504002323 | 51 | 243 | 0.0 | 0.0 | 0.00 | 0.00 | 0.00 | 59 | 1012.9 |
| 20260504001821 | 51 | 228 | 0.0 | 0.9 | 0.00 | 0.00 | 0.00 | 57 | 1012.7 |
| 20260504001318 | 52 | 234 | 0.9 | 1.7 | 0.00 | 0.00 | 0.00 | 56 | 1012.8 |
| 20260504000815 | 53 | 247 | 0.0 | 0.9 | 0.00 | 0.00 | 0.00 | 55 | 1012.6 |
| 20260504000312 | 53 | 258 | 1.7 | 1.7 | 0.00 | 0.00 | 0.00 | 53 | 1012.7 |
| 20260503235809 | 53 | 267 | 1.7 | 1.7 | 0.00 | 0.00 | 0.00 | 53 | 1012.6 |
| 20260503235307 | 54 | 241 | 0.0 | 0.9 | 0.00 | 0.00 | 0.00 | 52 | 1012.6 |
| 20260503234804 | 54 | 260 | 3.5 | 3.5 | 0.00 | 0.00 | 0.00 | 50 | 1012.5 |
| 20260503234302 | 54 | 246 | 4.3 | 6.1 | 0.00 | 0.00 | 0.00 | 50 | 1012.4 |
| 20260503233759 | 54 | 268 | 3.5 | 3.5 | 0.00 | 0.00 | 0.00 | 50 | 1012.4 |
| 20260503233255 | 55 | 263 | 3.5 | 3.5 | 0.00 | 0.00 | 0.00 | 50 | 1012.6 |
| 20260503232752 | 55 | 263 | 3.5 | 3.5 | 0.00 | 0.00 | 0.00 | 49 | 1012.2 |
| 20260503232249 | 56 | 258 | 5.2 | 7.0 | 0.00 | 0.00 | 0.00 | 48 | 1012.4 |
| 20260503231747 | 56 | 244 | 2.6 | 2.6 | 0.00 | 0.00 | 0.00 | 49 | 1012.4 |
| 20260503231244 | 56 | 266 | 5.2 | 6.1 | 0.00 | 0.00 | 0.00 | 48 | 1012.4 |
| 20260503230740 | 56 | 236 | 1.7 | 2.6 | 0.00 | 0.00 | 0.00 | 49 | 1012.4 |
| 20260503230238 | 57 | 256 | 3.5 | 3.5 | 0.00 | 0.00 | 0.00 | 49 | 1012.4 |
| 20260503225735 | 57 | 237 | 1.7 | 1.7 | 0.00 | 0.00 | 0.00 | 49 | 1012.5 |
| 20260503225234 | 57 | 252 | 2.6 | 2.6 | 0.00 | 0.00 | 0.00 | 47 | 1012.5 |
| 20260503224732 | 56 | 263 | 4.3 | 7.0 | 0.00 | 0.00 | 0.00 | 49 | 1012.3 |
| 20260503224230 | 56 | 257 | 7.0 | 7.0 | 0.00 | 0.00 | 0.00 | 46 | 1012.5 |
| 20260503223727 | 56 | 264 | 6.1 | 7.0 | 0.00 | 0.00 | 0.00 | 47 | 1012.3 |
| 20260503223225 | 57 | 271 | 2.6 | 3.5 | 0.00 | 0.00 | 0.00 | 48 | 1012.3 |
| 20260503222721 | 56 | 281 | 5.2 | 6.1 | 0.00 | 0.00 | 0.00 | 46 | 1012.4 |
| 20260503222219 | 56 | 245 | 2.6 | 3.5 | 0.00 | 0.00 | 0.00 | 46 | 1012.4 |
| 20260503221717 | 57 | 256 | 3.5 | 5.2 | 0.00 | 0.00 | 0.00 | 48 | 1012.3 |
| 20260503221214 | 58 | 262 | 4.3 | 5.2 | 0.00 | 0.00 | 0.00 | 47 | 1012.5 |
| 20260503220711 | 58 | 270 | 4.3 | 5.2 | 0.00 | 0.00 | 0.00 | 46 | 1012.5 |
| 20260503220207 | 57 | 267 | 1.7 | 2.6 | 0.00 | 0.00 | 0.00 | 46 | 1012.6 |
| 20260503215704 | 57 | 263 | 3.5 | 5.2 | 0.00 | 0.00 | 0.00 | 47 | 1012.6 |
| 20260503215201 | 57 | 236 | 0.0 | 0.9 | 0.00 | 0.00 | 0.00 | 50 | 1012.5 |
| 20260503214700 | 59 | 279 | 5.2 | 7.0 | 0.00 | 0.00 | 0.00 | 45 | 1012.5 |
| 20260503214155 | 58 | 236 | 4.3 | 7.0 | 0.00 | 0.00 | 0.00 | 47 | 1012.5 |
| 20260503213655 | 58 | 250 | 0.0 | 0.9 | 0.00 | 0.00 | 0.00 | 47 | 1012.4 |
| 20260503213151 | 56 | 229 | 1.7 | 3.5 | 0.00 | 0.00 | 0.00 | 49 | 1012.4 |
| 20260503212648 | 56 | 281 | 6.1 | 7.0 | 0.00 | 0.00 | 0.00 | 46 | 1012.6 |
| 20260503212146 | 57 | 234 | 1.7 | 2.6 | 0.00 | 0.00 | 0.00 | 46 | 1012.2 |
| 20260503211643 | 57 | 250 | 1.7 | 1.7 | 0.00 | 0.00 | 0.00 | 50 | 1012.3 |
| 20260503211138 | 57 | 246 | 0.0 | 0.9 | 0.00 | 0.00 | 0.00 | 49 | 1012.4 |
| 20260503210635 | 57 | 288 | 5.2 | 6.1 | 0.00 | 0.00 | 0.00 | 46 | 1012.5 |
| 20260503210132 | 56 | 237 | 2.6 | 3.5 | 0.00 | 0.00 | 0.00 | 48 | 1012.4 |
| 20260503205628 | 56 | 254 | 4.3 | 6.1 | 0.00 | 0.00 | 0.00 | 47 | 1012.5 |
| 20260503205124 | 56 | 263 | 4.3 | 5.2 | 0.00 | 0.00 | 0.00 | 48 | 1012.4 |
| 20260503204621 | 56 | 248 | 4.3 | 5.2 | 0.00 | 0.00 | 0.00 | 47 | 1012.5 |
| 20260503204119 | 56 | 267 | 4.3 | 5.2 | 0.00 | 0.00 | 0.00 | 47 | 1012.5 |
| 20260503203615 | 57 | 253 | 2.6 | 3.5 | 0.00 | 0.00 | 0.00 | 46 | 1012.6 |
| 20260503203113 | 57 | 240 | 3.5 | 3.5 | 0.00 | 0.00 | 0.00 | 46 | 1012.4 |
| 20260503202611 | 56 | 256 | 3.5 | 3.5 | 0.00 | 0.00 | 0.00 | 48 | 1012.4 |
| 20260503202109 | 56 | 252 | 2.6 | 3.5 | 0.00 | 0.00 | 0.00 | 48 | 1012.5 |
| 20260503201607 | 57 | 276 | 2.6 | 3.5 | 0.00 | 0.00 | 0.00 | 46 | 1012.6 |
| 20260503201104 | 57 | 281 | 4.3 | 5.2 | 0.00 | 0.00 | 0.00 | 46 | 1012.7 |
| 20260503200600 | 57 | 274 | 6.1 | 7.8 | 0.00 | 0.00 | 0.00 | 46 | 1012.6 |
| 20260503200056 | 57 | 275 | 5.2 | 7.8 | 0.00 | 0.00 | 0.00 | 47 | 1012.6 |
| 20260503195553 | 57 | 308 | 4.3 | 6.1 | 0.00 | 0.00 | 0.00 | 46 | 1012.7 |
| 20260503195050 | 59 | 268 | 5.2 | 7.0 | 0.00 | 0.00 | 0.00 | 45 | 1012.7 |
| 20260503194547 | 59 | 266 | 1.7 | 1.7 | 0.00 | 0.00 | 0.00 | 46 | 1012.7 |
| 20260503194047 | 57 | 228 | 1.7 | 2.6 | 0.00 | 0.00 | 0.00 | 49 | 1012.9 |
| 20260503193544 | 57 | 259 | 3.5 | 5.2 | 0.00 | 0.00 | 0.00 | 49 | 1012.9 |
| 20260503193039 | 57 | 281 | 1.7 | 2.6 | 0.00 | 0.00 | 0.00 | 48 | 1012.9 |
| 20260503192535 | 56 | 228 | 1.7 | 1.7 | 0.00 | 0.00 | 0.00 | 46 | 1013.0 |
| 20260503192031 | 56 | 279 | 0.9 | 1.7 | 0.00 | 0.00 | 0.00 | 46 | 1013.2 |
| 20260503191528 | 57 | 273 | 5.2 | 6.1 | 0.00 | 0.00 | 0.00 | 46 | 1013.2 |
| 20260503191025 | 58 | 161 | 4.3 | 6.1 | 0.00 | 0.00 | 0.00 | 42 | 1013.1 |
| 20260503190522 | 57 | 270 | 1.7 | 1.7 | 0.00 | 0.00 | 0.00 | 48 | 1013.3 |
| 20260503190019 | 56 | 252 | 2.6 | 2.6 | 0.00 | 0.00 | 0.00 | 49 | 1013.2 |
| 20260503185515 | 57 | 274 | 2.6 | 5.2 | 0.00 | 0.00 | 0.00 | 48 | 1013.4 |
| 20260503185015 | 57 | 246 | 1.7 | 3.5 | 0.00 | 0.00 | 0.00 | 50 | 1013.5 |
| 20260503184511 | 57 | 275 | 5.2 | 7.0 | 0.00 | 0.00 | 0.00 | 49 | 1013.3 |
| 20260503184008 | 56 | 298 | 2.6 | 2.6 | 0.00 | 0.00 | 0.00 | 49 | 1013.4 |
| 20260503183504 | 56 | 231 | 1.7 | 1.7 | 0.00 | 0.00 | 0.00 | 50 | 1013.5 |
| 20260503183001 | 56 | 291 | 1.7 | 2.6 | 0.00 | 0.00 | 0.00 | 51 | 1013.8 |
| 20260503182500 | 57 | 266 | 2.6 | 2.6 | 0.00 | 0.00 | 0.00 | 48 | 1013.8 |
| 20260503181957 | 57 | 291 | 1.7 | 2.6 | 0.00 | 0.00 | 0.00 | 45 | 1013.9 |
| 20260503181454 | 55 | 257 | 3.5 | 3.5 | 0.00 | 0.00 | 0.00 | 50 | 1013.8 |
| 20260503180950 | 56 | 263 | 7.0 | 7.8 | 0.00 | 0.00 | 0.00 | 51 | 1013.7 |
| 20260503180449 | 57 | 272 | 1.7 | 2.6 | 0.00 | 0.00 | 0.00 | 49 | 1013.8 |
| 20260503175945 | 57 | 225 | 0.9 | 1.7 | 0.00 | 0.00 | 0.00 | 50 | 1013.8 |
| 20260503175443 | 55 | 238 | 1.7 | 1.7 | 0.00 | 0.00 | 0.00 | 52 | 1013.8 |
| 20260503174939 | 56 | 267 | 3.5 | 3.5 | 0.00 | 0.00 | 0.00 | 52 | 1013.8 |
| 20260503174438 | 56 | 290 | 5.2 | 8.7 | 0.00 | 0.00 | 0.00 | 51 | 1013.9 |
| 20260503173937 | 58 | 182 | 1.7 | 2.6 | 0.00 | 0.00 | 0.00 | 54 | 1013.7 |
| 20260503173434 | 56 | 261 | 1.7 | 1.7 | 0.00 | 0.00 | 0.00 | 48 | 1013.8 |
| 20260503172931 | 56 | 258 | 0.0 | 0.9 | 0.00 | 0.00 | 0.00 | 49 | 1013.8 |
| 20260503172428 | 58 | 211 | 0.0 | 0.0 | 0.00 | 0.00 | 0.00 | 53 | 1014.0 |
| 20260503171924 | 56 | 297 | 3.5 | 3.5 | 0.00 | 0.00 | 0.00 | 50 | 1013.9 |
| 20260503171421 | 56 | 314 | 1.7 | 2.6 | 0.00 | 0.00 | 0.00 | 53 | 1014.0 |
| 20260503170919 | 55 | 264 | 0.9 | 1.7 | 0.00 | 0.00 | 0.00 | 54 | 1013.9 |
| 20260503170415 | 55 | 271 | 2.6 | 3.5 | 0.00 | 0.00 | 0.00 | 50 | 1013.9 |
| 20260503150807 | 51 | 270 | 1.7 | 2.6 | 0.00 | 0.00 | 0.00 | 51 | 1015.0 |
| 20260503150303 | 51 | 322 | 4.3 | 6.1 | 0.00 | 0.00 | 0.00 | 53 | 1015.2 |
| 20260503140228 | 50 | 295 | 3.5 | 5.2 | 0.00 | 0.00 | 0.00 | 59 | 1015.3 |
| 20260503131157 | 46 | 52 | 3.5 | 5.2 | 0.00 | 0.00 | 0.00 | 65 | 1015.7 |
| 20260503130654 | 44 | 271 | 0.0 | 0.0 | 0.00 | 0.00 | 0.00 | 68 | 1015.8 |
| 20260503130152 | 45 | 258 | 0.9 | 1.7 | 0.00 | 0.00 | 0.00 | 67 | 1015.9 |
| 20260503120123 | 42 | 199 | 1.7 | 1.7 | 0.00 | 0.00 | 0.00 | 74 | 1015.5 |
| 20260503110551 | 39 | 255 | 0.0 | 0.0 | 0.00 | 0.00 | 0.00 | 79 | 1015.1 |
| 20260503090437 | 34 | 258 | 0.0 | 0.0 | 0.00 | 0.00 | 0.00 | 86 | 1014.3 |
| 20260503081404 | 36 | 255 | 0.0 | 0.0 | 0.00 | 0.00 | 0.00 | 80 | 1014.1 |
| 20260503080901 | 36 | 282 | 0.9 | 1.7 | 0.00 | 0.00 | 0.00 | 79 | 1014.0 |
| 20260503080358 | 36 | 242 | 0.0 | 0.0 | 0.00 | 0.00 | 0.00 | 80 | 1014.0 |
| 20260503072834 | 36 | 236 | 0.9 | 0.9 | 0.00 | 0.00 | 0.00 | 80 | 1013.9 |
| 20260503072331 | 36 | 252 | 0.0 | 0.0 | 0.00 | 0.00 | 0.00 | 79 | 1013.8 |
| 20260503071827 | 36 | 250 | 0.0 | 0.0 | 0.00 | 0.00 | 0.00 | 80 | 1013.7 |
| 20260503071325 | 37 | 260 | 0.0 | 0.0 | 0.00 | 0.00 | 0.00 | 78 | 1013.9 |
| 20260503070821 | 37 | 222 | 0.0 | 0.0 | 0.00 | 0.00 | 0.00 | 77 | 1013.8 |
| 20260503070319 | 36 | 286 | 0.0 | 0.9 | 0.00 | 0.00 | 0.00 | 78 | 1013.8 |
| 20260503060244 | 38 | 260 | 0.0 | 0.0 | 0.00 | 0.00 | 0.00 | 77 | 1013.7 |
| 20260503054731 | 40 | 250 | 0.0 | 0.0 | 0.00 | 0.00 | 0.00 | 74 | 1013.9 |
| 20260503054228 | 40 | 261 | 0.9 | 1.7 | 0.00 | 0.00 | 0.00 | 74 | 1013.8 |
| 20260503053726 | 40 | 260 | 0.9 | 0.9 | 0.00 | 0.00 | 0.00 | 75 | 1013.9 |